[[{"header":{"parameterUnit":"m.s-1","parameterCategory":1,"la1":30.2991,"la2":30.254,"lo1":-89.0895,"lo2":-89.0444,"dy":0.0017,"dx":0.0017,"nx":28,"ny":28,"refTime":"2024-08-21T09:00:00:Z","depth":0,"parameterNumber":2,"parameterNumberName":"U-component_of_WINDS"},"data":[0,0,0,0,0,0,0,0,0,0,0,0,0,0,0,0,0,0,0,0,0,0,0,0,0,0,0,0,0,0,0,0,0,0,0,0,0,0,0,0,0,0,0,0,0,0,0,0,0,0,0,0,0,0,0,0,0,0,-1.8131,-1.8132,0,-1.8174,-1.8175,-1.8175,-1.8142,-1.8141,-1.814,-1.8138,-1.8183,-1.8185,-1.8188,0,0,0,0,0,0,0,0,0,0,0,0,0,-1.8023,-1.8025,-1.8131,-1.8132,-1.8132,-1.8174,-1.8175,-1.8175,-1.8143,-1.8141,-1.8139,-1.8138,-1.8182,-1.8185,-1.8188,0,0,0,0,0,0,0,0,0,0,0,0,0,-1.8068,-1.8026,-1.8131,-1.8121,-1.8121,-1.8174,-1.8175,-1.8175,-1.8143,-1.8141,-1.8139,-1.8137,-1.8181,-1.8185,-1.8189,-1.8254,0,0,-1.82,-1.8202,0,0,0,0,0,0,0,0,-1.8066,-1.8072,-1.8122,-1.8122,-1.8121,-1.8151,-1.8153,-1.8202,-1.8144,-1.8135,-1.8138,-1.8136,-1.8174,-1.8178,-1.8191,-1.8256,-1.8258,-1.82,-1.8203,-1.8204,-1.8205,0,0,0,0,0,0,0,-1.8063,-1.807,-1.8148,-1.8123,-1.8122,-1.8115,-1.8119,-1.8162,-1.8166,-1.8135,-1.8133,-1.8138,-1.8173,-1.8187,-1.8192,-1.8259,-1.82,-1.8204,-1.8206,-1.8207,-1.8382,-1.8384,0,0,0,0,0,0,-1.806,-1.8068,-1.8147,-1.8149,-1.8088,-1.8119,-1.8123,-1.8144,-1.8165,-1.8166,-1.814,-1.8137,-1.8182,-1.8187,-1.8193,-1.8272,-1.8204,-1.8208,-1.821,-1.8379,-1.8382,-1.8385,0,0,0,0,0,0,-1.8058,-1.8068,-1.8145,-1.8108,-1.8117,-1.8123,-1.8146,-1.8145,-1.8159,-1.8169,-1.817,-1.8154,-1.8181,-1.8188,-1.824,-1.8273,-1.821,-1.8213,-1.8377,-1.838,-1.8384,-1.8431,0,0,0,0,0,0,-1.8055,-1.8067,-1.8092,-1.8109,-1.8119,-1.819,-1.8148,-1.8148,-1.8166,-1.8162,-1.8182,-1.8183,-1.8179,-1.8234,-1.8243,-1.8277,-1.8216,-1.8374,-1.8378,-1.8382,-1.8426,-1.8435,-1.8443,0,0,0,0,0,-1.8051,-1.8103,-1.8093,-1.8103,-1.815,-1.8192,-1.8199,-1.8193,-1.8169,-1.8194,-1.82,-1.8182,-1.8268,-1.824,-1.825,-1.8286,-1.8371,-1.8377,-1.8382,-1.8422,-1.8434,-1.8443,0,0,0,0,0,0,-1.809,-1.8105,-1.8094,-1.8153,-1.8172,-1.8187,-1.8218,-1.8205,-1.8231,-1.8226,-1.8219,-1.8224,-1.8278,-1.8287,-1.8255,-1.8351,-1.8316,-1.8324,-1.8343,-1.8354,-1.8362,-1.8359,-1.8219,0,0,0,0,0,-1.8105,-1.8138,-1.8149,-1.82,-1.821,-1.8213,-1.8231,-1.8225,-1.8244,-1.8252,-1.8262,-1.8282,-1.8313,-1.8334,-1.8363,-1.8427,-1.8432,-1.8457,-1.8466,-1.8473,-1.8479,-1.8515,-1.8526,-1.8402,-1.8402,-1.8402,0,0,-1.8137,-1.815,-1.817,-1.8208,-1.8222,-1.8257,-1.822,-1.8257,-1.8283,-1.8258,-1.8307,-1.8316,-1.8337,-1.8395,-1.8422,-1.8404,-1.8515,-1.8479,-1.8485,-1.8488,-1.8521,-1.8533,-1.8544,-1.8406,-1.8405,-1.8405,0,0,-1.8213,-1.8225,-1.827,-1.8284,-1.8306,-1.8307,-1.8318,-1.8335,-1.834,-1.8389,-1.8372,-1.8402,-1.8456,-1.8473,-1.8488,-1.8571,-1.8556,-1.8581,-1.8626,-1.8661,-1.8671,-1.8679,-1.871,-1.872,-1.8588,-1.8588,-1.8588,0,-1.825,-1.8301,-1.8294,-1.8333,-1.8351,-1.833,-1.8375,-1.839,-1.842,-1.8433,-1.8413,-1.8481,-1.8494,-1.8556,-1.8577,-1.859,-1.8602,-1.8579,-1.867,-1.8678,-1.8686,-1.8715,-1.8726,-1.8591,-1.8591,-1.859,-1.859,0,-1.8346,-1.8382,-1.8415,-1.8444,-1.8466,-1.8508,-1.8508,-1.853,-1.8523,-1.8527,-1.8578,-1.8593,-1.8626,-1.864,-1.8633,-1.8702,-1.869,-1.867,-1.8635,-1.8701,-1.8728,-1.8739,-1.8595,-1.8594,-1.8593,-1.8592,0,0,-1.8447,-1.8473,-1.8485,-1.8499,-1.8521,-1.8549,-1.859,-1.8622,-1.8642,-1.8664,-1.8699,-1.8745,-1.8727,-1.8745,-1.874,-1.877,-1.8836,-1.8746,-1.8747,-1.8763,-1.8914,-1.8929,-1.8941,-1.8826,-1.8828,-1.883,-1.8912,0,-1.8524,-1.8596,-1.8592,-1.866,-1.8693,-1.8674,-1.871,-1.8729,-1.8733,-1.8763,-1.8768,-1.8802,-1.8775,-1.8786,-1.8815,-1.8822,-1.8866,-1.8816,-1.886,-1.8861,-1.8855,-1.8955,-1.8971,-1.9048,-1.8922,-1.8924,-1.8925,0,-1.8624,-1.8649,-1.8721,-1.8739,-1.8753,-1.8785,-1.8815,-1.8843,-1.8863,-1.8865,-1.8885,-1.8875,-1.8918,-1.8882,-1.8941,-1.8907,-1.8925,-1.8931,-1.8934,-1.8938,-1.8897,-1.8963,-1.9072,-1.9084,-1.8942,-1.8941,-1.8939,0,-1.8691,-1.8743,-1.8793,-1.8805,-1.8827,-1.8851,-1.8861,-1.888,-1.89,-1.8925,-1.8938,-1.8968,-1.8985,-1.9009,-1.9008,-1.8982,-1.9069,-1.9032,-1.9072,-1.9072,-1.9091,-1.909,-1.9205,-1.9102,-1.9102,-1.9102,-1.9101,0,-1.8778,-1.8823,-1.8823,-1.8854,-1.8903,-1.8898,-1.8948,-1.8956,-1.8972,-1.9005,-1.899,-1.9021,-1.9018,-1.9049,-1.9049,-1.9098,-1.9106,-1.9109,-1.9108,-1.911,-1.911,-1.9122,-1.9116,-1.9105,-1.9104,-1.9103,-1.9103,0,-1.8861,-1.8863,-1.8916,-1.8933,-1.8939,-1.8975,-1.899,-1.9019,-1.9023,-1.9064,-1.9074,-1.908,-1.9116,-1.9118,-1.9159,-1.9159,-1.9219,-1.9213,-1.9213,-1.9211,-1.9251,-1.9247,-1.9378,-1.9395,-1.9281,-1.9282,-1.9283,0,-1.8917,-1.895,-1.8972,-1.8992,-1.9004,-1.9037,-1.9057,-1.9054,-1.9076,-1.9102,-1.9129,-1.9163,-1.9191,-1.925,-1.9258,-1.929,-1.9284,-1.9328,-1.9289,-1.929,-1.9286,-1.9284,-1.9287,-1.9336,-1.9337,-1.9338,-1.9339,0,-1.9015,-1.9015,-1.9044,-1.9074,-1.9099,-1.9122,-1.9144,-1.9162,-1.9161,-1.9186,-1.9223,-1.9244,-1.9287,-1.9322,-1.9353,-1.9365,-1.9352,-1.9351,-1.9362,-1.9364,-1.9363,-1.9365,-1.9233,-1.9348,-1.9347,-1.9346,-1.9346,-1.9345,-1.9086,-1.9116,-1.9135,-1.9169,-1.9185,-1.9206,-1.9235,-1.9243,-1.9273,-1.9307,-1.9304,-1.9345,-1.9365,-1.9406,-1.942,-1.9453,-1.9438,-1.9453,-1.9457,-1.9461,-1.9466,-1.9358,-1.9458,-1.9458,-1.9458,-1.9458,-1.9457,0,-1.9184,-1.9196,-1.9227,-1.9258,-1.9285,-1.9271,-1.9294,-1.9318,-1.9354,-1.9374,-1.9402,-1.9444,-1.9479,-1.949,-1.9524,-1.9547,-1.9542,-1.9556,-1.9554,-1.9557,-1.9477,-1.9464,-1.956,-1.956,-1.956,-1.956,-1.956,-1.956,-1.9238,-1.9288,-1.929,-1.9348,-1.9359,-1.9399,-1.9414,-1.9434,-1.945,-1.9498,-1.9526,-1.9534,-1.9551,-1.9585,-1.9616,-1.9619,-1.9632,-1.9648,-1.9649,-1.9573,-1.9563,-1.9553,-1.9541,-1.9651,-1.9651,-1.9726,-1.9727,-1.9728]},{"header":{"parameterUnit":"m.s-1","parameterCategory":1,"la1":30.2991,"la2":30.254,"lo1":-89.0895,"lo2":-89.0444,"dy":0.0017,"dx":0.0017,"nx":28,"ny":28,"refTime":"2024-08-21T09:00:00:Z","depth":0,"parameterNumber":3,"parameterNumberName":"V-component_of_WINDS"},"data":[0,0,0,0,0,0,0,0,0,0,0,0,0,0,0,0,0,0,0,0,0,0,0,0,0,0,0,0,0,0,0,0,0,0,0,0,0,0,0,0,0,0,0,0,0,0,0,0,0,0,0,0,0,0,0,0,0,0,-2.3788,-2.3788,0,-2.3754,-2.3753,-2.3753,-2.3685,-2.3683,-2.3682,-2.3681,-2.3648,-2.3648,-2.3649,0,0,0,0,0,0,0,0,0,0,0,0,0,-2.3796,-2.3797,-2.3788,-2.3788,-2.3787,-2.3754,-2.3753,-2.3753,-2.3685,-2.3683,-2.3682,-2.368,-2.3648,-2.3648,-2.3649,0,0,0,0,0,0,0,0,0,0,0,0,0,-2.3781,-2.3797,-2.3788,-2.3749,-2.3745,-2.3754,-2.3753,-2.3753,-2.3685,-2.3683,-2.3681,-2.3679,-2.3648,-2.3648,-2.3649,-2.3693,0,0,-2.3651,-2.3651,0,0,0,0,0,0,0,0,-2.3782,-2.3781,-2.3755,-2.3752,-2.3748,-2.3721,-2.3744,-2.3733,-2.3686,-2.3708,-2.3681,-2.3678,-2.3674,-2.3672,-2.3671,-2.3692,-2.369,-2.3651,-2.3651,-2.3651,-2.3651,0,0,0,0,0,0,0,-2.3783,-2.3782,-2.3775,-2.3755,-2.375,-2.3734,-2.373,-2.3742,-2.3703,-2.3706,-2.3701,-2.3698,-2.3672,-2.367,-2.3669,-2.369,-2.3651,-2.3651,-2.3651,-2.3652,-2.3746,-2.3748,0,0,0,0,0,0,-2.3789,-2.3783,-2.3776,-2.3774,-2.376,-2.3736,-2.3731,-2.3732,-2.3703,-2.3696,-2.37,-2.3695,-2.367,-2.3669,-2.3668,-2.3719,-2.3651,-2.3652,-2.3652,-2.3744,-2.3747,-2.3749,0,0,0,0,0,0,-2.379,-2.3789,-2.3777,-2.3777,-2.3774,-2.3738,-2.374,-2.3732,-2.3731,-2.3698,-2.3691,-2.3705,-2.3668,-2.3667,-2.3687,-2.3717,-2.3652,-2.3653,-2.3742,-2.3745,-2.3748,-2.382,0,0,0,0,0,0,-2.379,-2.379,-2.3806,-2.3778,-2.3774,-2.3797,-2.3741,-2.3733,-2.3732,-2.3725,-2.3701,-2.3695,-2.3667,-2.3687,-2.3688,-2.3716,-2.3653,-2.3739,-2.3743,-2.3747,-2.3815,-2.3826,-2.3835,0,0,0,0,0,-2.3791,-2.3828,-2.3807,-2.3807,-2.3793,-2.3799,-2.3797,-2.3763,-2.3734,-2.3751,-2.3729,-2.3696,-2.3713,-2.369,-2.369,-2.3719,-2.3737,-2.3742,-2.3747,-2.3811,-2.3824,-2.3834,0,0,0,0,0,0,-2.3861,-2.3824,-2.38,-2.3829,-2.3817,-2.3787,-2.3806,-2.3777,-2.3774,-2.3768,-2.3726,-2.3722,-2.3748,-2.3735,-2.371,-2.3761,-2.372,-2.3725,-2.3768,-2.378,-2.379,-2.3793,-2.3653,0,0,0,0,0,-2.388,-2.3887,-2.3854,-2.3882,-2.3878,-2.3843,-2.3844,-2.3819,-2.3806,-2.3801,-2.3781,-2.377,-2.3773,-2.3775,-2.3776,-2.3813,-2.3807,-2.3833,-2.3843,-2.3851,-2.3856,-2.3875,-2.3887,-2.3765,-2.3765,-2.3765,0,0,-2.3919,-2.3899,-2.3906,-2.3896,-2.3884,-2.3893,-2.384,-2.3851,-2.3857,-2.3802,-2.3821,-2.3806,-2.3791,-2.382,-2.3831,-2.381,-2.3888,-2.3857,-2.3864,-2.3864,-2.3882,-2.3893,-2.3903,-2.3768,-2.3768,-2.3767,0,0,-2.3995,-2.398,-2.4003,-2.3992,-2.3975,-2.3951,-2.3957,-2.3931,-2.3919,-2.3936,-2.3896,-2.3903,-2.3908,-2.3899,-2.3896,-2.3968,-2.3938,-2.397,-2.4021,-2.404,-2.405,-2.4058,-2.4085,-2.4095,-2.3975,-2.3975,-2.3975,0,-2.4046,-2.4057,-2.4019,-2.4033,-2.403,-2.398,-2.4003,-2.3994,-2.3979,-2.3978,-2.3954,-2.396,-2.3946,-2.3973,-2.3991,-2.3989,-2.3995,-2.3973,-2.4051,-2.4059,-2.4067,-2.4092,-2.4102,-2.3979,-2.3979,-2.3978,-2.3978,0,-2.4121,-2.4129,-2.415,-2.4135,-2.4134,-2.4153,-2.4118,-2.4122,-2.4097,-2.4077,-2.4096,-2.4077,-2.4074,-2.4078,-2.4054,-2.4101,-2.4089,-2.4059,-2.4017,-2.4083,-2.4106,-2.4115,-2.3985,-2.3984,-2.3982,-2.3981,0,0,-2.4241,-2.4205,-2.4213,-2.4206,-2.4183,-2.4189,-2.4206,-2.4202,-2.4206,-2.4197,-2.4211,-2.4216,-2.4188,-2.4184,-2.4158,-2.4175,-2.4235,-2.4143,-2.4142,-2.4162,-2.4288,-2.4312,-2.4324,-2.4215,-2.4216,-2.4218,-2.429,0,-2.4313,-2.4339,-2.4305,-2.4338,-2.4346,-2.4299,-2.4313,-2.4301,-2.4283,-2.4287,-2.4266,-2.4272,-2.4234,-2.4231,-2.4246,-2.4225,-2.4261,-2.4219,-2.4228,-2.4229,-2.4235,-2.4336,-2.4361,-2.443,-2.4299,-2.43,-2.4301,0,-2.44,-2.4395,-2.4429,-2.4404,-2.4406,-2.442,-2.4414,-2.4418,-2.4403,-2.4389,-2.4384,-2.4353,-2.4369,-2.4327,-2.4348,-2.4321,-2.4322,-2.4313,-2.4315,-2.4316,-2.427,-2.434,-2.4451,-2.4462,-2.4315,-2.4314,-2.4313,0,-2.4486,-2.4487,-2.4508,-2.4503,-2.4474,-2.4485,-2.4474,-2.4457,-2.4457,-2.4452,-2.4452,-2.4449,-2.4447,-2.4446,-2.4415,-2.4388,-2.4441,-2.4396,-2.443,-2.4431,-2.4445,-2.4444,-2.4559,-2.4444,-2.4444,-2.4443,-2.4443,0,-2.457,-2.4593,-2.4546,-2.4559,-2.4584,-2.4544,-2.457,-2.4554,-2.454,-2.455,-2.4508,-2.4519,-2.4477,-2.4483,-2.4459,-2.4481,-2.448,-2.4469,-2.4463,-2.4474,-2.4476,-2.4475,-2.447,-2.4446,-2.4445,-2.4445,-2.4444,0,-2.4671,-2.4639,-2.4659,-2.463,-2.4623,-2.4643,-2.4619,-2.463,-2.4608,-2.4621,-2.4622,-2.4589,-2.4594,-2.4563,-2.4562,-2.4546,-2.458,-2.4565,-2.4585,-2.4581,-2.4617,-2.4614,-2.4736,-2.475,-2.4625,-2.4626,-2.4627,0,-2.4727,-2.4744,-2.4716,-2.472,-2.471,-2.4716,-2.4716,-2.4678,-2.4679,-2.4664,-2.4678,-2.4679,-2.4678,-2.4688,-2.4665,-2.4664,-2.4649,-2.4692,-2.4649,-2.466,-2.4651,-2.4651,-2.4653,-2.4701,-2.4703,-2.4704,-2.4705,0,-2.4831,-2.4815,-2.4815,-2.4811,-2.4812,-2.4806,-2.4799,-2.4804,-2.4763,-2.4767,-2.4771,-2.477,-2.4769,-2.4772,-2.4766,-2.4755,-2.4724,-2.4719,-2.4727,-2.4739,-2.475,-2.4746,-2.4611,-2.4716,-2.4715,-2.4714,-2.4714,-2.4713,-2.4912,-2.4925,-2.4908,-2.491,-2.49,-2.4894,-2.4903,-2.4883,-2.4885,-2.4881,-2.4859,-2.4867,-2.4853,-2.4843,-2.4835,-2.4841,-2.4821,-2.4832,-2.4836,-2.4839,-2.4846,-2.4748,-2.484,-2.484,-2.4839,-2.4839,-2.4839,0,-2.5015,-2.5001,-2.5004,-2.4994,-2.4996,-2.4965,-2.4955,-2.4959,-2.4967,-2.4956,-2.4956,-2.4961,-2.4963,-2.494,-2.4939,-2.4949,-2.4935,-2.495,-2.495,-2.4948,-2.4864,-2.4858,-2.4962,-2.4962,-2.4962,-2.4962,-2.4962,-2.4962,-2.5069,-2.5089,-2.5071,-2.5087,-2.5073,-2.5081,-2.5078,-2.5072,-2.5063,-2.5071,-2.5072,-2.5056,-2.504,-2.5038,-2.5039,-2.5032,-2.5034,-2.5055,-2.5044,-2.4966,-2.4954,-2.4942,-2.4936,-2.5055,-2.5056,-2.5127,-2.5128,-2.5128]}]]